Find Starlink 30894

NORAD ID: 58375 Int'l Des: 2023-178 Owner: SPXS Country: US Constellation: starlink operational
LEOCIRCULAR

現在のビュー

3D地球を読み込み中...

About Starlink 30894

Starlink 30894 (NORAD 58375) is a starlink constellation satellite (v2 mini) launched Nov 20, 2023 by SPXS of US. It operates in LEO, CIRCULAR orbit with a mass of 730.00 kg.

Starlink 30894について

説明を読み込み中...

次回通過

Passes for default location (London). Set your location on the main map for personalized predictions.

高度履歴

Loading altitude history...

軌道要素

1 58375U 23178B 26167.40660348 .00005715 00000-0 18017-3 0 9990
2 58375 53.1600 261.2558 0001218 77.6967 282.4172 15.34398068144954
Epoch: Jun 16, 2026 • Age: 9 hours

現在のステータス

高度 468.5 km
速度 7.63 km/s
衛星直下点 -19.18°S, 87.35°W
打ち上げ日 Nov 20, 2023
運用期間 2.5 years
タイプ internet

技術仕様

分類 Payload
質量 730.00 kg
乾燥質量 700.00 kg
総質量 730.00 kg
長さ 0.30 m
直径 4.10 m
スパン 29.00 m
形状 Box + pan
製造者 SPXS
バスタイプ Starlink V2M
フェーズステータス In Orbit
所有者/国 SPXS/US

Most Searched